Location: Gleizolles
(44.4833°N, 6.7667°E)
Time: 00:49:50
(UTC+00:00)

Courier 1B Rocket - Pass Details

Date: 25 June 2024
Orbit: 920 x 1201 km, 28.3° (Epoch: 23 July)

Event Time Altitude Azimuth Distance (km) Brightness Sun altitude
Exits shadow 01:03:32 13° 148° (SSE) 2,503 6.8 -19.2°
Drops below altitude 10° 01:05:19 10° 133° (SE) 2,770 7.2 -19.1°
Sets 01:09:27 0° 111° (ESE) 3,788 8.1 -18.8°
